Lid_Strength_Index
4 4 4 3 3 2 3 6 11 6 4 10 9 11 9 7 8 8 10 11 12 13 13 15 15 14 12 9 9 11 10 13 17 15 10 10 11 13 14 20 20 17 18 17
3 3 3 3 3 2 6 8 7 5 5 13 13 10 10 8 10 10 10 11 10 11 13 14 14 13 9 8 9 11 11 14 19 18 15 12 14 12 12 14 16 16 20 17
3 3 3 3 3 2 4 9 12 9 7 8 11 12 12 12 8 9 9 10 10 11 12 11 13 12 9 9 9 6 8 13 16 18 17 14 14 12 12 14 19 17 16 15
4 3 3 3 3 3 6 8 11 9 13 12 11 11 12 13 12 10 9 11 10 11 13 12 13 11 11 10 8 9 10 15 14 13 13 12 13 13 13 14 14 17 14 14
4 4 4 4 3 3 7 12 11 10 11 11 12 12 14 13 12 12 12 12 10 10 12 11 12 11 11 12 11 11 10 14 14 16 12 13 15 13 13 13 14 14 13 14
5 5 5 4 4 4 7 7 7 9 12 12 12 12 12 12 10 10 9 9 10 11 10 9 9 8 9 9 11 11 11 13 16 17 15 15 17 14 14 13 13 13 16 13
5 5 5 5 4 5 7 7 8 10 14 12 12 11 11 11 10 11 10 9 11 9 6 7 8 10 10 10 10 9 12 12 14 17 16 21 14 11 12 13 13 12 13 13
5 5 4 4 4 4 8 7 8 10 14 13 13 12 12 12 12 12 11 10 8 7 10 12 14 15 14 13 11 11 10 12 16 16 19 16 13 13 13 15 14 13 13 13
5 5 5 4 4 5 8 9 8 9 13 15 12 14 14 16 16 14 12 9 8 9 11 13 16 18 16 16 15 12 12 11 13 17 18 20 14 13 12 13 17 12 12 13
4 4 5 5 5 5 7 8 8 11 15 13 13 15 15 13 14 15 12 11 11 9 13 14 15 16 13 16 16 16 15 15 15 14 16 16 12 11 12 17 16 12 13 13
4 4 4 4 5 5 7 9 7 9 12 13 11 11 13 12 11 14 12 13 12 10 12 12 13 14 13 14 13 15 14 16 16 14 16 19 10 13 15 12 13 12 13 13
4 4 4 4 4 4 5 9 7 6 10 11 9 8 7 6 6 9 11 12 10 8 10 11 11 13 12 13 16 11 15 13 15 14 14 10 10 12 11 11 12 12 13 13
4 4 4 4 4 3 4 8 7 8 12 12 12 10 6 5 5 4 10 8 8 8 6 8 10 12 11 14 12 11 11 9 13 13 11 10 10 10 10 10 12 12 12 12
4 4 4 3 3 2 2 6 6 6 9 14 13 6 8 5 4 4 4 6 5 6 6 8 9 11 8 11 10 11 10 10 11 13 12 11 11 11 10 10 11 12 12 11
2 2 2 2 1 1 2 4 4 3 6 13 12 8 6 5 5 6 5 6 7 8 10 9 10 8 9 9 9 11 9 11 12 13 11 11 12 12 10 11 12 12 12 12
1 0 0 -0 -0 -1 3 7 3 1 2 7 11 9 8 6 5 6 7 7 6 7 9 9 7 6 8 11 12 10 9 9 10 12 11 11 12 11 11 11 11 12 12 12
-1 -1 -1 -1 -1 2 4 7 3 -1 0 6 12 14 7 5 6 6 7 5 5 7 8 9 8 8 7 10 12 8 9 10 11 11 11 12 11 11 11 11 11 10 12 11
-2 -2 -2 -2 -1 0 4 1 -1 -1 3 5 13 14 10 6 8 9 7 8 8 8 8 8 9 9 9 12 9 7 8 10 11 11 11 11 11 11 11 11 11 12 12 12
-2 -2 -2 1 3 6 5 -1 -1 -0 4 11 11 13 14 7 8 8 9 9 11 8 10 9 9 11 12 11 9 9 9 10 10 11 11 11 12 12 12 12 12 13 12 12
-2 1 4 8 4 -1 1 3 7 5 5 7 10 8 11 8 8 10 10 10 10 13 11 9 11 13 9 9 8 9 9 10 10 12 13 13 13 12 13 13 12 12 12 12
2 4 7 4 -0 3 7 9 8 9 10 8 9 9 11 6 10 10 9 10 10 13 12 12 14 14 11 8 9 9 10 10 11 11 11 12 12 13 13 13 12 11 11 12
2 2 2 4 8 14 14 15 10 9 11 8 9 9 9 9 7 9 10 11 11 14 12 12 15 13 10 10 11 12 12 11 12 12 12 12 12 12 12 13 12 12 11 11
1 5 11 8 15 13 18 21 14 13 8 8 8 10 9 10 9 10 11 13 13 12 13 14 14 12 12 13 13 13 13 12 12 12 12 12 13 13 13 13 12 12 12 12
6 12 15 13 17 15 14 12 10 9 8 9 9 9 10 9 11 11 13 13 12 15 16 17 14 13 13 13 13 13 14 13 15 14 14 14 15 14 14 13 13 12 13 12
10 11 15 18 10 8 7 8 9 8 8 9 10 10 10 10 11 11 14 15 17 17 17 15 14 13 13 14 14 14 14 14 14 14 16 18 17 16 15 14 13 13 13 13
11 16 14 11 11 11 10 10 11 9 10 10 10 10 11 11 11 15 18 18 19 16 15 14 14 14 15 15 14 14 14 14 14 14 14 14 15 15 15 15 14 14 14 15
14 15 12 10 12 11 12 11 11 10 12 13 10 12 12 10 13 13 15 17 14 14 13 14 15 13 15 15 14 14 14 14 14 15 15 16 16 16 16 16 15 15 15 15